STARLINK-11559, 62831

Orbit data source: Space-Track

STARLINK-11559, 62831 is a payload satellite owned by SpaceX/Seattle (US) in LEO that was launched on Mon, 27 Jan 2025 UTC via an FALCON 9 launch vehicle from the Air Force Eastern Test Range (AFETR). Payload-class satellites include a variety of spacecraft equipped with specific instruments for various scientific and technological missions. These include communications satellites like Starlink; space stations such as the ISS; scientific satellites like the Hubble; Earth observation satellites from companies like Planet Labs, Umbra, and HawkEye 360; GPS; miniature CubeSats for education and research; and military/defense satellites.

Loading next visibility...
Identifier
62831, 2025-019C
Orbit
LEO
Country
Flag of USUS
Related business
Manufacturer
SpaceX/Seattle
Mission
Operational Commercial Communications
Bus & Motor
STARLINK V2MD, Unknown motor
Mass
960 kg wet, ~910 kg dry
Launch date (UTC)
2025-01-27 (1 year ago)
Launch vehicle
FALCON 9
Launch site
Air Force Eastern Test Range (AFETR)
Object type
Payload
Rocket body
Debris
Shape & HBR
Box + 2 Pan, 18.1 m
Radar Cross Section
36.964 m², Large (>1 m²)

Expand to show TLE details & history
Last TLE update: 14 hours ago

TLE from 14 hours ago
0 STARLINK-11559
1 62831U 25019C   26126.66481322  .00152923  00000-0  11683-2 0  9999
2 62831  42.9995 316.9847 0001784 220.0283 140.0453 15.70944379 72998
Epoch: 2026-05-06T15:57Z
TLE epoch observation values (Epoch: 2026-05-06T15:57:19.862Z)
Latitude
-0.00003°
Longitude
-146.87014°
Altitude
356.889 km
Speed
7.696 km/s
True Right ascension
21h 07m 56s
True Declination
0° 00' 00"
Sunlit
Object was in daylight at epoch
Visualization orbit readout
Latitude
Unknown
Longitude
Unknown
Altitude
Unknown
Speed
Unknown
Apparent Right ascension
Unknown
Apparent Declination
Unknown
Sunlit
N/A
Visualization observer readout
Local Sidereal Time
13:44:49
Azimuth
Unknown
Elevation
Unknown
Doppler factor
Unknown
Orbital elements
Apogee altitude
359.38 km
Perigee altitude
356.977 km
Semi-major axis
6,736.316 km
Eccentricity
0.00018
Inclination
42.9995°
RAAN
316.9847°
Arg. of periapsis
220.0283°
True anomaly
140.05843°
Mean anomaly
140.0453°
Eccentric anomaly
140.05186°
Mean motion
3.92563 °/min
Orbital period
91.7 mins
BSTAR
0.0011683
Loading maneuver chart data...
Computing Atmospheric mass density...
Loading historical data...
Loading historical data...
Loading historical data...
Loading historical data...
Loading historical data...
Loading historical data...
Loading historical data...

Documentation

Showing up to 5 results
|